Wind_Speed
8 8 8 10 9 10 12 8 8 9 7 8 14 10 14 10 12 4 31 24 25 24 23 21 19 17 15 13 13 14 13 14 16 16 17 16 16 15 13 12 12 12 10 9 12 13 13 14 14
10 12 11 12 13 16 12 13 7 4 7 5 3 11 14 13 7 15 31 27 25 21 21 20 17 15 14 13 15 15 16 16 17 17 17 16 15 14 11 12 13 13 11 10 12 14 15 14 12
9 7 9 6 9 10 14 11 11 10 6 2 8 10 18 15 11 19 30 30 27 21 20 18 15 15 14 13 15 15 15 16 17 18 16 13 12 13 11 10 13 13 12 11 10 10 11 12 11
9 7 7 4 10 9 14 14 9 8 6 1 2 3 19 15 11 29 24 21 24 22 20 17 14 14 14 12 13 14 15 14 15 14 13 11 10 10 12 10 11 12 11 9 8 8 10 11 9
4 9 10 11 8 11 11 10 7 7 8 1 3 4 18 16 26 25 26 27 24 20 17 11 11 12 13 13 14 14 15 14 14 13 12 11 9 8 10 10 9 10 11 8 6 8 8 9 9
2 8 17 15 13 13 7 7 6 4 5 7 3 17 25 26 24 23 22 24 24 17 15 12 11 13 14 14 14 13 14 12 13 12 11 9 8 7 8 8 8 7 8 6 5 5 5 6 7
11 18 19 14 15 11 6 6 8 15 11 11 15 22 27 23 23 24 24 24 20 20 14 13 12 12 13 14 13 13 12 11 11 11 9 8 6 6 5 5 5 4 5 4 3 2 3 5 5
15 17 18 17 13 12 10 8 7 11 11 13 14 9 23 19 22 21 19 20 23 17 14 12 11 12 13 14 13 12 12 9 10 8 8 7 5 5 4 3 3 2 2 2 1 1 1 2 2
12 18 18 15 11 7 11 5 3 6 11 9 5 12 22 24 20 19 20 25 16 17 15 11 10 11 12 13 12 10 10 8 9 7 5 5 2 3 3 3 2 1 2 2 3 3 3 1 1
10 15 16 8 6 3 9 3 6 5 5 1 7 18 19 26 33 22 22 16 16 14 12 10 10 11 11 11 11 10 8 6 6 5 4 5 4 4 4 2 2 3 4 5 7 7 7 4 3
5 11 11 9 7 2 6 2 6 4 3 2 2 13 19 22 25 17 14 16 12 12 11 10 10 11 10 10 9 8 6 5 3 4 5 6 7 3 1 3 4 3 8 9 10 5 6 6 6
8 6 7 10 10 5 5 9 3 1 6 10 5 14 15 17 20 20 20 14 10 8 8 9 8 9 10 9 8 6 5 5 5 6 9 7 3 1 3 3 7 7 10 10 8 6 4 6 7
8 3 11 14 13 7 7 10 8 3 4 8 15 15 15 19 20 19 16 14 13 7 6 9 9 8 9 8 6 6 6 5 7 6 5 3 3 4 5 2 7 6 3 1 8 8 7 10 10
16 9 12 11 11 9 11 11 7 3 4 6 12 16 18 17 19 18 17 16 13 9 5 8 9 6 6 6 3 5 6 5 4 7 5 3 2 5 6 10 9 7 6 1 4 12 10 12 10
16 10 8 7 8 13 14 14 8 3 2 3 15 15 15 16 14 12 15 13 11 11 8 7 10 8 6 4 3 5 7 6 6 8 5 4 5 6 7 10 10 8 7 4 6 10 11 12 11
9 6 30 5 6 13 17 16 9 1 5 6 15 14 12 13 12 9 8 7 8 11 8 4 3 5 6 4 3 4 6 8 7 7 4 4 5 5 8 8 8 10 9 9 9 10 11 15 13
11 15 15 10 6 19 20 13 13 5 2 5 16 14 10 6 5 6 6 3 4 6 5 4 1 4 3 2 1 2 5 9 5 4 3 4 3 4 7 6 8 10 9 9 10 11 13 15 13
8 12 14 7 11 8 16 18 13 8 5 2 7 14 12 10 8 7 2 3 1 5 4 4 3 4 2 3 6 3 4 6 6 5 3 3 1 3 5 4 5 9 9 8 8 9 12 12 12
13 11 10 8 13 10 14 15 6 5 6 8 8 8 11 11 7 9 10 5 6 8 8 6 5 5 6 6 6 4 2 4 6 8 3 2 0 3 4 2 3 7 7 8 9 9 9 9 9
11 14 11 11 12 4 18 20 16 10 8 8 11 8 7 9 13 12 11 13 13 13 11 3 4 5 6 8 6 7 3 2 6 10 6 3 2 3 3 1 3 4 4 7 9 8 8 8 9
19 5 12 14 21 12 10 12 28 22 13 12 14 11 10 11 15 5 2 2 14 14 6 1 5 5 5 10 8 7 6 6 6 6 5 3 0 2 3 1 3 3 3 4 6 6 5 5 7
12 0 6 13 25 17 14 4 12 20 11 18 20 24 17 19 17 13 3 3 2 5 6 1 4 4 7 10 7 6 6 5 10 7 6 4 1 2 3 2 2 4 4 3 4 5 4 5 4
9 1 3 10 27 14 16 1 4 12 17 12 8 16 24 22 28 24 17 4 6 5 5 7 3 2 6 6 6 5 5 8 8 8 7 5 3 2 4 3 4 3 2 3 4 6 5 5 5
9 9 6 11 17 3 5 1 1 6 10 15 18 13 13 27 27 31 23 18 6 10 4 3 1 4 4 6 4 5 5 7 7 8 10 5 4 4 5 5 5 4 3 1 3 5 6 5 4
10 6 4 1 3 4 8 5 4 7 3 7 8 17 14 21 28 32 35 28 17 9 3 1 3 1 6 5 6 5 6 5 4 4 8 5 6 6 7 8 6 4 4 4 6 5 4 3 3
11 8 2 3 3 3 2 3 2 5 10 5 5 21 18 18 22 32 33 30 28 18 6 4 3 1 4 8 6 6 6 6 5 5 4 6 9 9 9 10 9 5 6 8 7 5 4 2 1
6 5 4 5 11 4 4 2 1 8 4 2 7 15 18 16 13 25 29 27 26 27 15 7 6 6 7 6 7 7 7 7 6 6 6 5 7 8 10 10 10 7 5 6 5 4 3 3 5
9 5 3 2 5 3 1 2 2 12 17 18 12 18 16 11 10 16 22 23 20 22 19 14 11 9 10 10 10 8 9 10 9 8 6 5 5 5 12 11 12 9 6 5 6 5 5 7 9
13 7 5 2 4 7 4 4 11 15 9 11 10 10 13 17 14 11 9 13 17 15 19 13 15 13 13 14 10 10 9 11 13 11 9 7 5 6 8 11 12 12 10 10 9 9 10 11 11
10 1 2 7 6 7 6 9 8 7 11 8 9 11 16 21 17 14 10 3 9 18 19 17 17 16 10 8 11 6 8 11 13 13 13 12 10 10 9 11 13 13 13 13 12 13 14 14 14
Wind_Direction
73 73 78 95 84 109 121 126 121 119 111 116 140 159 180 174 162 192 152 144 141 139 133 132 134 128 125 119 123 117 115 117 119 121 120 113 107 99 97 94 93 86 83 99 102 97 92 89 88
94 92 94 91 120 133 127 143 142 118 118 92 204 212 204 195 180 155 155 142 140 138 134 132 134 129 120 123 124 122 126 123 120 120 117 114 106 102 98 98 94 84 85 98 93 90 84 81 85
110 102 98 97 146 114 145 150 139 127 114 223 276 233 197 202 214 168 158 144 140 142 135 133 131 126 124 124 128 127 129 125 122 123 121 115 108 109 103 98 94 87 87 94 90 86 79 85 95
114 65 86 116 162 130 148 153 127 104 117 193 256 188 194 196 187 163 158 152 146 147 136 136 132 125 126 127 128 123 122 122 121 124 121 116 114 112 108 100 93 94 91 89 89 92 88 100 94
67 64 83 125 149 135 136 124 82 66 21 85 305 230 177 158 157 154 147 143 147 140 126 127 126 127 129 129 130 129 120 124 129 125 126 124 120 116 114 112 109 107 107 102 86 89 92 88 110
93 117 118 100 123 134 123 105 38 24 48 74 146 141 139 140 145 144 145 139 129 138 143 152 149 134 132 130 133 132 124 125 126 124 124 121 127 125 113 110 108 107 110 118 120 102 92 88 84
102 121 109 117 133 136 132 107 32 32 54 108 125 136 134 136 143 142 142 139 140 138 160 154 146 137 132 133 131 131 126 128 127 122 120 119 123 114 102 106 102 100 111 123 124 116 106 86 82
135 123 109 132 153 136 146 126 82 41 71 118 118 131 149 145 136 151 144 140 142 161 153 149 148 137 137 132 127 131 127 129 116 116 114 125 126 118 121 122 106 124 146 141 181 154 17 66 90
150 126 114 119 157 130 165 175 94 49 117 136 101 152 138 132 147 139 143 154 164 159 151 154 152 154 144 135 133 132 126 130 114 119 122 113 115 110 83 58 34 269 257 238 232 220 213 236 203
139 135 131 127 132 77 158 245 344 54 70 95 126 169 152 145 117 132 165 166 164 157 153 164 162 159 144 139 136 132 140 125 118 116 123 115 107 94 94 75 24 320 307 296 264 229 210 190 187
164 148 143 134 164 98 182 200 328 337 12 351 195 166 163 161 164 164 154 153 158 163 160 170 169 159 148 144 141 146 139 123 139 147 130 129 127 116 15 251 327 266 291 262 271 290 167 119 143
55 179 178 147 139 174 218 256 360 227 327 22 131 162 144 160 162 158 166 157 151 152 164 173 177 174 159 161 158 152 153 163 157 129 149 139 166 172 355 304 281 280 317 250 260 206 194 153 144
14 177 170 173 175 241 229 226 303 207 328 41 141 165 153 154 157 153 153 155 150 128 165 183 179 183 176 172 170 177 169 158 147 145 159 157 76 66 33 358 14 354 359 348 224 195 198 169 165
346 226 185 175 164 220 212 217 227 234 321 63 146 135 150 142 143 156 156 149 130 86 101 173 182 204 186 170 206 191 171 185 173 131 148 160 110 55 23 5 359 3 21 29 190 198 193 184 169
325 252 209 201 181 209 206 200 214 306 25 103 146 141 138 135 125 116 131 130 110 77 74 135 164 179 166 175 148 175 188 208 159 128 132 142 95 63 32 17 10 15 40 60 180 173 170 166 160
190 293 320 152 180 189 193 188 189 113 357 152 162 144 141 129 121 132 121 94 101 82 77 153 178 176 167 176 146 121 180 175 160 145 147 131 86 53 37 26 32 50 67 83 105 146 151 156 167
211 150 57 305 222 189 194 208 182 170 34 161 175 163 167 179 175 144 136 148 52 33 45 32 230 205 191 264 352 147 157 164 174 155 126 104 64 28 40 35 41 58 72 97 101 132 152 155 167
247 168 137 246 206 211 220 225 189 179 172 140 169 191 190 201 209 236 281 180 325 331 319 328 300 280 275 303 295 258 229 194 190 222 144 133 289 32 41 37 53 67 68 94 111 127 142 151 147
269 222 196 142 172 198 218 184 178 173 186 202 179 184 206 213 205 226 248 248 255 274 279 312 312 289 305 294 288 295 270 239 225 223 203 191 357 23 34 32 62 72 79 95 116 130 138 146 144
287 260 201 168 202 202 199 201 201 211 213 220 221 213 205 228 223 239 251 262 279 282 277 293 307 303 310 288 283 269 237 180 196 205 197 234 22 19 16 83 124 96 105 104 109 116 127 133 147
324 279 224 214 199 196 174 204 200 211 230 248 252 231 225 218 235 244 51 291 276 272 248 305 338 325 292 271 270 273 250 192 176 178 201 228 333 16 49 30 148 164 136 116 105 118 120 128 137
341 285 198 207 187 200 215 169 181 208 250 225 243 238 236 227 227 242 236 12 349 178 210 99 9 294 259 268 277 268 226 218 197 198 209 214 181 39 71 80 131 176 161 148 141 142 153 167 180
324 33 299 208 190 201 207 65 208 197 217 217 243 241 230 227 221 234 241 213 194 163 127 107 68 299 265 273 283 260 208 224 224 225 215 208 169 153 99 99 112 127 160 172 157 149 160 178 179
269 151 158 187 170 258 192 315 332 207 225 233 221 226 240 226 230 231 237 241 200 173 165 146 122 27 322 276 268 249 212 225 248 226 212 210 185 163 135 120 110 105 91 127 172 174 165 154 141
202 134 105 95 197 218 123 131 200 191 280 267 217 224 258 240 226 233 236 239 227 204 139 100 105 357 353 302 259 239 232 246 238 206 209 211 193 187 166 149 138 110 31 241 192 182 175 172 166
263 229 213 216 145 225 46 126 239 291 308 330 305 195 213 235 234 232 237 239 238 224 235 245 247 284 298 344 262 252 247 239 228 220 208 211 198 202 188 177 165 116 60 96 158 181 214 211 262
188 210 251 123 114 93 31 139 249 318 29 82 204 174 139 211 247 235 235 239 238 233 230 264 267 279 268 315 313 258 240 232 230 240 236 226 216 209 204 201 192 161 126 122 141 181 230 285 305
255 267 225 259 130 91 9 281 185 141 89 78 88 160 182 236 241 233 232 240 233 234 231 235 248 257 263 270 301 262 236 225 216 226 225 215 212 211 202 206 203 193 186 201 207 223 268 288 296
229 243 264 247 124 142 159 242 130 122 153 88 89 146 212 232 221 236 249 246 236 222 223 227 240 252 255 257 278 260 238 232 228 222 223 218 222 216 204 202 207 219 218 229 243 254 265 276 286
113 65 154 213 175 120 131 189 175 154 135 124 127 175 196 203 211 218 228 242 262 237 232 225 236 249 270 267 262 250 237 231 234 232 234 235 233 228 224 223 220 225 236 248 258 265 271 275 279
Height
3164 3164 3164 3164 3169 3167 3167 3170 3169 3168 3168 3168 3169 3171 3173 3173 3173 3177 3177 3180 3182 3186 3188 3191 3195 3196 3197 3198 3199 3200 3199 3200 3200 3201 3201 3202 3202 3203 3203 3203 3203 3202 3203 3203 3203 3204 3205 3206 3206
3165 3165 3165 3165 3167 3167 3169 3170 3170 3171 3171 3170 3171 3171 3173 3174 3174 3173 3176 3181 3185 3189 3191 3194 3196 3197 3198 3201 3202 3202 3202 3202 3203 3204 3205 3206 3206 3205 3206 3206 3205 3204 3205 3205 3205 3206 3207 3207 3207
3166 3167 3168 3167 3168 3169 3170 3171 3172 3172 3173 3173 3172 3170 3171 3174 3176 3179 3179 3179 3185 3191 3193 3196 3198 3200 3201 3204 3204 3204 3204 3205 3205 3206 3207 3209 3209 3208 3209 3209 3207 3207 3207 3207 3207 3207 3209 3209 3210
3169 3170 3171 3170 3170 3171 3171 3173 3174 3173 3173 3173 3171 3170 3172 3174 3176 3179 3182 3184 3185 3192 3195 3198 3200 3202 3204 3205 3206 3207 3207 3209 3209 3209 3210 3212 3212 3212 3211 3212 3210 3210 3210 3209 3209 3210 3210 3211 3211
3169 3169 3170 3171 3172 3172 3174 3176 3178 3176 3173 3173 3171 3169 3171 3175 3179 3182 3185 3187 3192 3196 3197 3201 3203 3204 3206 3207 3208 3209 3209 3211 3211 3211 3212 3213 3213 3213 3212 3212 3212 3211 3211 3211 3210 3212 3212 3213 3212
3172 3172 3173 3174 3175 3176 3177 3178 3178 3178 3176 3174 3173 3172 3175 3179 3184 3186 3189 3192 3194 3200 3203 3205 3205 3206 3207 3208 3210 3211 3211 3212 3212 3213 3214 3214 3214 3214 3213 3214 3213 3213 3213 3213 3212 3212 3212 3214 3214
3174 3174 3175 3176 3177 3179 3179 3181 3182 3180 3178 3178 3178 3176 3179 3183 3186 3189 3192 3194 3197 3201 3205 3207 3208 3208 3208 3210 3211 3213 3213 3214 3214 3214 3215 3215 3215 3215 3215 3215 3215 3215 3214 3214 3214 3214 3213 3214 3215
3176 3177 3176 3178 3180 3180 3181 3182 3182 3183 3182 3184 3185 3182 3183 3186 3190 3192 3194 3197 3200 3204 3206 3207 3209 3210 3211 3211 3212 3214 3214 3215 3215 3216 3216 3216 3217 3216 3215 3216 3215 3215 3214 3215 3215 3215 3215 3215 3215
3178 3179 3180 3182 3182 3182 3182 3183 3183 3184 3184 3186 3186 3189 3188 3189 3193 3195 3199 3201 3203 3205 3207 3210 3211 3212 3212 3211 3213 3215 3215 3216 3216 3217 3217 3217 3218 3216 3217 3217 3217 3215 3215 3215 3215 3215 3215 3215 3214
3181 3183 3183 3184 3185 3185 3185 3187 3186 3187 3187 3187 3188 3190 3191 3193 3194 3196 3200 3204 3205 3207 3209 3211 3212 3213 3212 3213 3215 3216 3217 3217 3218 3219 3218 3218 3218 3218 3217 3217 3216 3216 3215 3214 3214 3214 3214 3213 3213
3186 3186 3187 3188 3187 3188 3188 3188 3189 3188 3188 3189 3189 3190 3192 3194 3197 3199 3203 3206 3207 3209 3210 3213 3214 3214 3214 3215 3216 3217 3217 3218 3219 3219 3219 3218 3218 3217 3216 3216 3215 3214 3214 3212 3213 3212 3214 3213 3214
3187 3188 3189 3191 3190 3188 3190 3190 3191 3190 3191 3189 3190 3195 3196 3196 3198 3202 3204 3207 3208 3210 3212 3214 3215 3216 3216 3217 3217 3217 3218 3218 3219 3220 3219 3220 3219 3218 3218 3217 3214 3212 3210 3209 3210 3213 3214 3214 3214
3188 3189 3190 3190 3190 3192 3190 3190 3192 3191 3191 3190 3192 3197 3199 3200 3201 3204 3206 3207 3210 3212 3214 3215 3217 3217 3218 3218 3218 3219 3218 3219 3219 3220 3220 3221 3221 3220 3218 3217 3215 3212 3209 3208 3209 3211 3213 3214 3215
3187 3188 3187 3191 3190 3191 3192 3191 3192 3192 3191 3192 3194 3198 3200 3202 3203 3205 3206 3209 3212 3213 3214 3216 3217 3218 3219 3220 3220 3220 3219 3220 3221 3222 3221 3221 3221 3219 3218 3216 3214 3212 3210 3209 3208 3210 3213 3214 3216
3189 3187 3186 3189 3188 3188 3191 3193 3192 3193 3194 3194 3196 3199 3201 3204 3206 3208 3211 3212 3213 3215 3216 3217 3219 3220 3221 3220 3220 3220 3221 3222 3223 3223 3222 3222 3221 3219 3218 3217 3215 3213 3210 3209 3209 3211 3213 3216 3218
3191 3190 3187 3186 3189 3190 3193 3193 3193 3193 3194 3195 3198 3199 3201 3204 3207 3210 3211 3213 3215 3216 3219 3220 3221 3222 3221 3221 3221 3221 3223 3224 3224 3224 3223 3222 3221 3220 3219 3218 3216 3214 3211 3210 3210 3211 3214 3216 3219
3190 3190 3192 3191 3190 3190 3190 3191 3192 3194 3195 3197 3199 3201 3203 3205 3206 3209 3212 3213 3215 3217 3219 3221 3222 3222 3222 3223 3223 3223 3225 3224 3224 3224 3223 3222 3222 3221 3220 3219 3218 3215 3214 3213 3213 3213 3215 3218 3221
3190 3195 3194 3186 3190 3189 3187 3188 3190 3193 3195 3197 3199 3202 3204 3206 3208 3209 3212 3213 3214 3216 3219 3221 3222 3222 3222 3223 3224 3225 3225 3225 3224 3224 3223 3222 3223 3222 3221 3221 3220 3219 3218 3217 3216 3216 3218 3221 3223
3188 3190 3189 3188 3186 3187 3187 3184 3184 3187 3192 3196 3198 3201 3202 3205 3208 3210 3211 3213 3215 3217 3219 3221 3221 3222 3222 3224 3225 3224 3224 3224 3225 3225 3224 3223 3223 3223 3222 3222 3222 3222 3222 3221 3220 3220 3221 3223 3224
3186 3185 3186 3187 3186 3188 3188 3189 3188 3187 3189 3192 3196 3199 3201 3204 3206 3210 3211 3212 3214 3217 3219 3220 3222 3222 3222 3222 3223 3223 3224 3225 3225 3225 3225 3224 3224 3223 3223 3223 3224 3223 3224 3224 3223 3223 3224 3225 3225
3182 3180 3179 3183 3184 3188 3189 3190 3190 3190 3191 3190 3193 3198 3201 3203 3206 3208 3210 3211 3214 3217 3220 3220 3221 3220 3221 3222 3223 3224 3225 3225 3225 3225 3225 3224 3224 3224 3224 3223 3224 3224 3225 3225 3225 3225 3225 3225 3227
3182 3180 3180 3181 3186 3186 3190 3191 3191 3190 3190 3194 3195 3197 3201 3202 3206 3207 3209 3212 3214 3216 3218 3219 3219 3221 3223 3223 3224 3224 3224 3225 3225 3225 3224 3225 3225 3225 3224 3224 3224 3225 3225 3225 3226 3226 3226 3227 3228
3182 3181 3182 3182 3184 3188 3189 3190 3189 3191 3191 3192 3192 3193 3197 3200 3203 3205 3209 3213 3215 3218 3218 3218 3220 3222 3222 3222 3223 3224 3224 3225 3225 3225 3225 3226 3225 3225 3224 3225 3225 3225 3226 3226 3227 3227 3227 3226 3227
3181 3181 3183 3184 3187 3190 3189 3191 3189 3188 3188 3188 3188 3189 3192 3195 3198 3201 3206 3211 3213 3216 3218 3219 3220 3221 3221 3222 3222 3223 3224 3225 3225 3224 3225 3226 3226 3225 3225 3226 3226 3227 3227 3228 3228 3228 3228 3229 3229
3181 3180 3184 3188 3189 3190 3190 3191 3187 3187 3186 3185 3185 3186 3188 3191 3194 3198 3202 3207 3211 3214 3216 3219 3220 3221 3222 3221 3222 3223 3223 3223 3224 3224 3225 3225 3225 3226 3226 3227 3227 3227 3227 3227 3227 3229 3230 3230 3230
3178 3180 3181 3183 3189 3188 3191 3190 3188 3184 3181 3179 3179 3180 3184 3184 3190 3195 3198 3204 3208 3212 3216 3218 3219 3219 3220 3221 3221 3222 3222 3223 3224 3224 3224 3224 3225 3226 3227 3228 3228 3228 3226 3226 3228 3229 3230 3231 3231
3176 3178 3179 3180 3185 3186 3192 3190 3187 3182 3180 3175 3174 3180 3185 3184 3188 3191 3196 3200 3204 3209 3212 3215 3217 3218 3219 3221 3221 3221 3222 3223 3224 3224 3225 3225 3225 3225 3226 3228 3228 3229 3228 3227 3228 3230 3230 3231 3231
3176 3178 3178 3177 3184 3193 3192 3189 3186 3182 3182 3179 3178 3181 3183 3185 3187 3189 3192 3196 3201 3205 3209 3211 3215 3216 3218 3219 3219 3220 3221 3221 3222 3223 3225 3225 3225 3224 3225 3227 3228 3229 3228 3228 3228 3228 3229 3229 3229
3175 3176 3176 3177 3178 3183 3192 3187 3184 3181 3183 3185 3184 3185 3184 3184 3185 3189 3190 3193 3197 3200 3204 3207 3211 3214 3216 3217 3218 3217 3218 3219 3220 3221 3223 3224 3224 3224 3224 3225 3226 3227 3227 3227 3227 3227 3227 3227 3228
3172 3173 3172 3173 3177 3179 3182 3185 3181 3182 3183 3184 3183 3184 3185 3185 3187 3190 3190 3191 3194 3198 3201 3203 3207 3212 3215 3217 3217 3216 3216 3216 3218 3219 3220 3221 3222 3223 3223 3224 3224 3224 3225 3225 3225 3224 3224 3224 3225